Location: Unspecified
(0.0000°N, 0.0000°E)
Time: 08:11:55
(UTC+00:00)

Vanguard 2 Rocket - Pass Details

Date: 21 December 2018
Orbit: 556 x 3325 km, 32.9° (Epoch: 18 March)

Event Time Altitude Azimuth Distance (km) Brightness Sun altitude
Rises 18:51:05 0° 228° (SW) 6,922 12.9 -12.1°
Reaches altitude 10° 18:58:02 10° 212° (SSW) 6,171 12.0 -13.7°
Maximum altitude 19:11:11 20° 171° (S) 5,401 11.0 -16.7°
Drops below altitude 10° 19:23:30 10° 130° (SE) 5,803 10.7 -19.5°
Sets 19:29:36 0° 114° (ESE) 6,418 10.9 -20.9°
